{"data":{"norad_id":58903,"epoch":"2026-05-25T02:11:38.083200Z","epoch_age_seconds":67447,"freshness":"FRESH","line1":"1 58903U 24022E   26145.09141300  .00015346  00000+0  38459-3 0  9991","line2":"2 58903  97.4124 355.7127 0008207 168.0589 192.0853 15.40114459128786","mean_motion":15.40114459,"eccentricity":0.0008207,"inclination_deg":97.4124,"raan_deg":355.7127,"arg_perigee_deg":168.0589,"mean_anomaly_deg":192.0853,"bstar":0.00038459,"rev_number":12878,"period_min":93.499544243939,"perigee_km":440.17082048638,"apogee_km":451.37158340906,"semimajor_km":6823.9082019477,"source":"CELESTRAK","updated_at":"2026-05-25T13:38:13.534809Z"}}